This is the latest recevied weather packets stored in our database for station/object DG3RAP-11. If no packets are shown the sender has not sent any weather packets the latest 10 day(s).
| Time | Temp. | Humidity | Pressure | Rain* | Wind** | Luminosity | Snow |
|---|---|---|---|---|---|---|---|
| 1777485603 | 12.22° C | 31% | 1022.9 hPa | 0 mm | - | - | - |
| 1777485244 | 12.22° C | 31% | 1022.8 hPa | 0 mm | - | - | - |
| 1777484704 | 12.22° C | 31% | 1022.6 hPa | 0 mm | - | - | - |
| 1777484163 | 12.78° C | 31% | 1022.6 hPa | 0 mm | - | - | - |
| 1777483623 | 12.78° C | 31% | 1022.3 hPa | 0 mm | - | - | - |
| 1777483083 | 13.33° C | 32% | 1022.4 hPa | 0 mm | - | - | - |
| 1777482543 | 13.33° C | 32% | 1022.3 hPa | 0 mm | - | - | - |
| 1777482004 | 13.89° C | 33% | 1022.3 hPa | 0 mm | - | - | - |
| 1777481643 | 13.89° C | 32% | 1022 hPa | 0 mm | - | - | - |
| 1777481103 | 14.44° C | 31% | 1022.2 hPa | 0 mm | - | - | - |
| 1777480564 | 14.44° C | 30% | 1022.2 hPa | 0 mm | - | - | - |
| 1777480024 | 14.44° C | 29% | 1022 hPa | 0 mm | - | - | - |
| 1777479483 | 14.44° C | 28% | 1021.9 hPa | 0 mm | - | - | - |
| 1777478943 | 14.44° C | 27% | 1021.7 hPa | 0 mm | - | - | - |
| 1777478403 | 14.44° C | 27% | 1022.2 hPa | 0 mm | - | - | - |
| 1777478044 | 15° C | 29% | 1021.9 hPa | 0 mm | - | - | - |
| 1777477503 | 15° C | 27% | 1021.7 hPa | 0 mm | - | - | - |
| 1777476963 | 15° C | 27% | 1021.7 hPa | 0 mm | - | - | - |
| 1777476423 | 15° C | 29% | 1021.8 hPa | 0 mm | - | - | - |
| 1777475884 | 15° C | 30% | 1021.6 hPa | 0 mm | - | - | - |
| 1777475344 | 15° C | 28% | 1021.7 hPa | 0 mm | - | - | - |
| 1777474803 | 15° C | 29% | 1021.8 hPa | 0 mm | - | - | - |
| 1777474443 | 15° C | 29% | 1021.6 hPa | 0 mm | - | - | - |
| 1777473903 | 15.56° C | 29% | 1021.8 hPa | 0 mm | - | - | - |
| 1777473364 | 15° C | 29% | 1021.5 hPa | 0 mm | - | - | - |
* Rain latest hour (hover to see other rain measurements)
** Current wind speed in m/s (hover to see current wind gust speed)